GEFSSGP_prec_meanprecacc_036.txt.gz
Total_Precipitation_Accumulation
0.00 0.00 0.00 0.00 0.00 0.00 0.00 0.00 0.00 0.00 0.00 0.01 0.01 0.01 0.01 0.01 0.03 0.14 0.07 0.01 0.00 0.00 0.00 0.00 0.02 0.02 0.02 0.03 0.05 0.05 0.05 0.06 0.08 0.08 0.09 0.09 0.08 0.07 0.07 0.07 0.10 0.13 0.16 0.15 0.13 0.12 0.12 0.11 0.07
0.00 0.00 0.00 0.00 0.00 0.00 0.00 0.00 0.00 0.01 0.02 0.01 0.00 0.00 0.00 0.00 0.00 0.00 0.01 0.01 0.00 0.00 0.00 0.01 0.02 0.02 0.02 0.02 0.04 0.07 0.07 0.06 0.07 0.07 0.07 0.07 0.07 0.06 0.06 0.07 0.10 0.15 0.19 0.20 0.18 0.16 0.13 0.10 0.06
0.00 0.00 0.00 0.00 0.00 0.00 0.00 0.01 0.00 0.01 0.01 0.00 0.00 0.00 0.00 0.00 0.00 0.00 0.01 0.00 0.00 0.00 0.00 0.01 0.01 0.02 0.03 0.02 0.03 0.06 0.07 0.06 0.06 0.07 0.07 0.06 0.06 0.06 0.06 0.07 0.08 0.10 0.14 0.14 0.10 0.09 0.09 0.09 0.05
0.00 0.00 0.00 0.00 0.00 0.00 0.00 0.01 0.02 0.01 0.01 0.00 0.01 0.01 0.00 0.00 0.00 0.00 0.01 0.00 0.00 0.00 0.00 0.00 0.01 0.03 0.04 0.04 0.05 0.06 0.06 0.07 0.07 0.08 0.09 0.09 0.08 0.07 0.08 0.10 0.11 0.11 0.12 0.11 0.08 0.08 0.07 0.08 0.04
0.00 0.00 0.00 0.00 0.00 0.00 0.00 0.01 0.03 0.02 0.01 0.00 0.01 0.01 0.01 0.00 0.00 0.00 0.00 0.01 0.01 0.01 0.01 0.00 0.01 0.04 0.06 0.07 0.09 0.11 0.11 0.11 0.11 0.12 0.13 0.12 0.11 0.10 0.10 0.11 0.12 0.12 0.13 0.12 0.10 0.12 0.11 0.07 0.02
0.00 0.00 0.00 0.00 0.00 0.00 0.00 0.00 0.03 0.04 0.02 0.01 0.01 0.02 0.01 0.01 0.00 0.00 0.00 0.01 0.02 0.02 0.01 0.00 0.01 0.03 0.08 0.12 0.15 0.17 0.14 0.12 0.11 0.12 0.14 0.12 0.09 0.07 0.07 0.07 0.09 0.11 0.14 0.15 0.10 0.06 0.05 0.02 0.01
0.00 0.00 0.00 0.00 0.00 0.00 0.00 0.00 0.01 0.03 0.03 0.03 0.03 0.02 0.02 0.01 0.01 0.00 0.00 0.01 0.01 0.01 0.01 0.00 0.00 0.03 0.09 0.15 0.15 0.14 0.11 0.10 0.09 0.12 0.16 0.14 0.09 0.06 0.05 0.08 0.09 0.10 0.10 0.08 0.03 0.01 0.01 0.00 0.00
0.00 0.00 0.00 0.00 0.00 0.00 0.01 0.01 0.02 0.04 0.06 0.03 0.03 0.04 0.03 0.01 0.01 0.00 0.00 0.00 0.01 0.00 0.00 0.00 0.02 0.05 0.09 0.10 0.09 0.09 0.07 0.06 0.07 0.11 0.12 0.10 0.07 0.06 0.06 0.06 0.06 0.06 0.08 0.07 0.04 0.01 0.01 0.00 0.00
0.00 0.00 0.00 0.00 0.00 0.00 0.01 0.02 0.02 0.02 0.03 0.04 0.03 0.03 0.04 0.02 0.01 0.01 0.00 0.00 0.00 0.00 0.00 0.00 0.00 0.02 0.04 0.04 0.02 0.02 0.03 0.02 0.02 0.04 0.05 0.05 0.08 0.12 0.12 0.07 0.06 0.08 0.09 0.07 0.02 0.01 0.00 0.00 0.00
0.00 0.00 0.00 0.00 0.00 0.00 0.01 0.02 0.03 0.02 0.02 0.02 0.05 0.04 0.05 0.02 0.01 0.01 0.01 0.01 0.00 0.00 0.00 0.00 0.00 0.00 0.03 0.03 0.02 0.02 0.02 0.03 0.03 0.05 0.03 0.05 0.16 0.24 0.18 0.15 0.09 0.08 0.06 0.02 0.01 0.00 0.00 0.00 0.00
0.00 0.00 0.00 0.00 0.00 0.00 0.00 0.01 0.02 0.02 0.02 0.01 0.04 0.10 0.08 0.03 0.02 0.02 0.02 0.02 0.01 0.00 0.00 0.01 0.01 0.02 0.12 0.13 0.03 0.04 0.03 0.04 0.03 0.05 0.05 0.11 0.17 0.14 0.12 0.14 0.07 0.04 0.02 0.02 0.02 0.00 0.00 0.00 0.00
0.00 0.00 0.00 0.00 0.00 0.00 0.00 0.00 0.01 0.01 0.01 0.02 0.05 0.11 0.14 0.06 0.04 0.05 0.06 0.05 0.02 0.01 0.00 0.01 0.01 0.03 0.08 0.11 0.03 0.03 0.02 0.03 0.04 0.05 0.05 0.12 0.16 0.14 0.16 0.20 0.12 0.08 0.06 0.06 0.03 0.01 0.00 0.00 0.00
0.00 0.00 0.00 0.00 0.00 0.00 0.00 0.00 0.00 0.00 0.01 0.02 0.03 0.07 0.13 0.06 0.03 0.07 0.10 0.08 0.03 0.01 0.00 0.00 0.00 0.02 0.02 0.01 0.02 0.02 0.01 0.01 0.02 0.04 0.06 0.09 0.14 0.16 0.19 0.22 0.22 0.11 0.09 0.09 0.06 0.02 0.02 0.02 0.00
0.00 0.00 0.00 0.00 0.00 0.00 0.00 0.00 0.00 0.00 0.01 0.01 0.02 0.04 0.07 0.05 0.04 0.06 0.12 0.09 0.03 0.01 0.01 0.00 0.00 0.00 0.01 0.01 0.01 0.01 0.01 0.02 0.02 0.04 0.05 0.05 0.11 0.23 0.24 0.23 0.19 0.11 0.09 0.10 0.10 0.05 0.01 0.01 0.00
0.00 0.00 0.00 0.00 0.00 0.00 0.00 0.00 0.00 0.00 0.00 0.01 0.01 0.01 0.04 0.06 0.05 0.07 0.11 0.06 0.03 0.01 0.01 0.01 0.00 0.00 0.00 0.00 0.01 0.02 0.04 0.04 0.04 0.05 0.06 0.06 0.09 0.18 0.21 0.22 0.20 0.15 0.11 0.08 0.06 0.05 0.03 0.01 0.01
0.00 0.00 0.00 0.00 0.00 0.00 0.00 0.00 0.00 0.00 0.00 0.00 0.00 0.00 0.02 0.06 0.07 0.04 0.03 0.04 0.04 0.02 0.01 0.01 0.01 0.01 0.00 0.01 0.03 0.06 0.08 0.07 0.07 0.09 0.11 0.12 0.13 0.17 0.21 0.22 0.22 0.20 0.17 0.15 0.13 0.11 0.10 0.09 0.08
0.00 0.00 0.00 0.00 0.00 0.00 0.00 0.00 0.00 0.00 0.00 0.00 0.00 0.00 0.01 0.03 0.04 0.04 0.06 0.08 0.06 0.04 0.03 0.03 0.01 0.01 0.02 0.03 0.05 0.09 0.11 0.13 0.14 0.16 0.19 0.22 0.25 0.27 0.29 0.30 0.31 0.30 0.30 0.28 0.24 0.22 0.21 0.19 0.16
0.00 0.00 0.00 0.00 0.00 0.00 0.00 0.00 0.00 0.00 0.00 0.00 0.00 0.00 0.01 0.02 0.03 0.05 0.07 0.07 0.07 0.05 0.05 0.03 0.01 0.02 0.04 0.06 0.08 0.11 0.16 0.21 0.26 0.30 0.38 0.44 0.47 0.48 0.48 0.48 0.47 0.47 0.42 0.37 0.32 0.29 0.24 0.19 0.16
0.00 0.00 0.00 0.00 0.00 0.00 0.00 0.00 0.00 0.00 0.00 0.00 0.00 0.00 0.02 0.03 0.07 0.11 0.09 0.12 0.14 0.09 0.05 0.04 0.05 0.08 0.12 0.18 0.20 0.27 0.43 0.54 0.65 0.77 0.89 0.88 0.84 0.81 0.76 0.68 0.63 0.57 0.46 0.37 0.31 0.26 0.22 0.18 0.13
0.00 0.00 0.00 0.00 0.00 0.00 0.00 0.00 0.00 0.00 0.00 0.00 0.00 0.00 0.02 0.05 0.11 0.20 0.18 0.19 0.15 0.08 0.07 0.09 0.13 0.23 0.34 0.51 0.67 0.88 1.08 1.15 1.24 1.30 1.30 1.24 1.20 1.14 1.08 1.01 0.90 0.73 0.58 0.48 0.37 0.30 0.25 0.20 0.15
0.00 0.00 0.00 0.00 0.00 0.00 0.00 0.00 0.00 0.00 0.00 0.00 0.00 0.00 0.01 0.05 0.11 0.16 0.15 0.18 0.15 0.13 0.15 0.15 0.24 0.50 0.76 0.93 1.11 1.38 1.59 1.61 1.64 1.64 1.59 1.49 1.43 1.33 1.23 1.17 1.06 0.91 0.74 0.61 0.48 0.37 0.28 0.20 0.12
0.00 0.00 0.00 0.00 0.00 0.00 0.00 0.00 0.00 0.00 0.00 0.00 0.00 0.00 0.00 0.02 0.04 0.07 0.10 0.15 0.16 0.21 0.25 0.29 0.47 0.86 1.13 1.28 1.54 1.82 2.01 2.17 2.23 2.06 1.81 1.53 1.33 1.17 1.04 0.94 0.84 0.75 0.63 0.48 0.34 0.24 0.17 0.10 0.05
0.00 0.00 0.00 0.00 0.00 0.00 0.00 0.00 0.00 0.00 0.00 0.00 0.00 0.00 0.00 0.00 0.01 0.03 0.08 0.16 0.22 0.31 0.38 0.49 0.71 1.03 1.34 1.63 1.93 2.06 2.21 2.26 2.14 1.83 1.46 1.21 1.06 0.94 0.83 0.71 0.58 0.45 0.33 0.23 0.16 0.11 0.08 0.06 0.04
0.00 0.00 0.00 0.00 0.00 0.00 0.00 0.00 0.00 0.00 0.00 0.00 0.00 0.00 0.01 0.01 0.01 0.04 0.12 0.21 0.32 0.43 0.50 0.59 0.74 0.99 1.31 1.58 1.77 1.77 1.83 1.75 1.50 1.29 1.16 1.01 0.84 0.67 0.51 0.37 0.26 0.18 0.13 0.09 0.07 0.05 0.04 0.02 0.01
0.00 0.00 0.00 0.00 0.00 0.00 0.00 0.00 0.00 0.00 0.00 0.01 0.01 0.01 0.01 0.02 0.03 0.08 0.17 0.24 0.38 0.44 0.51 0.66 0.81 1.00 1.18 1.35 1.52 1.57 1.49 1.34 1.15 0.96 0.79 0.62 0.48 0.34 0.21 0.13 0.09 0.06 0.05 0.04 0.03 0.02 0.01 0.00 0.00
0.00 0.00 0.00 0.00 0.00 0.00 0.00 0.00 0.01 0.01 0.01 0.01 0.01 0.02 0.03 0.04 0.07 0.15 0.22 0.29 0.42 0.50 0.58 0.71 0.85 0.98 1.03 1.04 1.05 1.00 0.93 0.82 0.70 0.53 0.38 0.28 0.20 0.14 0.10 0.07 0.05 0.03 0.02 0.01 0.01 0.01 0.00 0.00 0.00
0.00 0.00 0.00 0.00 0.00 0.00 0.00 0.01 0.01 0.01 0.01 0.02 0.02 0.02 0.05 0.09 0.13 0.19 0.26 0.36 0.46 0.55 0.64 0.72 0.78 0.83 0.81 0.75 0.67 0.59 0.52 0.43 0.34 0.25 0.18 0.11 0.07 0.05 0.03 0.02 0.01 0.01 0.01 0.00 0.01 0.01 0.01 0.01 0.01
0.00 0.00 0.00 0.00 0.00 0.00 0.00 0.01 0.01 0.02 0.03 0.03 0.04 0.06 0.10 0.15 0.19 0.24 0.30 0.36 0.39 0.38 0.43 0.45 0.47 0.50 0.50 0.47 0.43 0.38 0.30 0.21 0.14 0.10 0.06 0.04 0.03 0.02 0.02 0.01 0.01 0.01 0.01 0.01 0.01 0.01 0.01 0.01 0.01
0.00 0.00 0.00 0.00 0.00 0.00 0.00 0.03 0.04 0.07 0.07 0.05 0.06 0.10 0.14 0.18 0.21 0.25 0.28 0.30 0.32 0.33 0.37 0.39 0.39 0.38 0.34 0.29 0.24 0.16 0.11 0.08 0.06 0.04 0.04 0.03 0.02 0.02 0.01 0.01 0.00 0.00 0.00 0.00 0.00 0.00 0.01 0.01 0.01
0.00 0.00 0.00 0.00 0.00 0.00 0.01 0.07 0.05 0.08 0.12 0.09 0.10 0.14 0.19 0.23 0.25 0.24 0.23 0.21 0.22 0.21 0.21 0.23 0.23 0.20 0.18 0.14 0.09 0.07 0.06 0.05 0.04 0.03 0.02 0.01 0.01 0.00 0.00 0.00 0.00 0.00 0.00 0.00 0.00 0.01 0.01 0.02 0.02

GEFSSGP_prec_meanprecacc_042.txt.gz
Total_Precipitation_Accumulation
0.00 0.00 0.00 0.00 0.00 0.00 0.00 0.00 0.00 0.00 0.01 0.01 0.01 0.01 0.01 0.02 0.03 0.16 0.08 0.01 0.00 0.00 0.00 0.00 0.02 0.02 0.02 0.03 0.05 0.05 0.05 0.06 0.08 0.08 0.09 0.09 0.09 0.08 0.08 0.08 0.10 0.14 0.17 0.16 0.14 0.12 0.13 0.11 0.07
0.00 0.00 0.00 0.00 0.00 0.00 0.00 0.00 0.00 0.01 0.03 0.01 0.00 0.00 0.01 0.00 0.00 0.00 0.01 0.01 0.01 0.00 0.00 0.01 0.02 0.02 0.02 0.02 0.04 0.07 0.07 0.07 0.07 0.07 0.08 0.07 0.07 0.07 0.07 0.08 0.11 0.15 0.19 0.20 0.18 0.16 0.13 0.10 0.06
0.00 0.00 0.00 0.00 0.00 0.00 0.00 0.01 0.01 0.01 0.01 0.01 0.00 0.01 0.01 0.00 0.00 0.00 0.01 0.00 0.00 0.00 0.00 0.01 0.01 0.02 0.03 0.02 0.03 0.06 0.07 0.07 0.06 0.07 0.07 0.07 0.07 0.06 0.07 0.08 0.09 0.11 0.14 0.14 0.10 0.09 0.09 0.09 0.05
0.00 0.00 0.00 0.00 0.00 0.00 0.00 0.01 0.02 0.01 0.01 0.01 0.01 0.02 0.02 0.01 0.00 0.00 0.01 0.01 0.00 0.00 0.00 0.00 0.01 0.03 0.04 0.04 0.05 0.06 0.06 0.07 0.07 0.08 0.10 0.09 0.09 0.07 0.09 0.11 0.12 0.11 0.12 0.11 0.08 0.08 0.07 0.08 0.04
0.00 0.00 0.00 0.00 0.00 0.00 0.00 0.01 0.03 0.02 0.01 0.01 0.01 0.02 0.02 0.01 0.00 0.00 0.00 0.01 0.01 0.01 0.01 0.00 0.01 0.04 0.06 0.07 0.09 0.11 0.12 0.11 0.11 0.12 0.13 0.12 0.11 0.10 0.11 0.12 0.13 0.13 0.13 0.12 0.10 0.12 0.11 0.07 0.02
0.00 0.00 0.00 0.00 0.00 0.00 0.00 0.01 0.03 0.04 0.02 0.02 0.03 0.04 0.04 0.02 0.01 0.00 0.01 0.02 0.02 0.02 0.01 0.00 0.01 0.03 0.08 0.12 0.15 0.17 0.14 0.12 0.11 0.12 0.15 0.12 0.09 0.07 0.07 0.08 0.09 0.11 0.14 0.15 0.10 0.06 0.05 0.02 0.01
0.00 0.00 0.00 0.00 0.00 0.00 0.00 0.00 0.02 0.03 0.03 0.03 0.04 0.06 0.05 0.02 0.01 0.00 0.01 0.01 0.01 0.01 0.01 0.00 0.00 0.03 0.09 0.15 0.15 0.14 0.11 0.10 0.10 0.13 0.16 0.14 0.09 0.06 0.06 0.08 0.10 0.10 0.10 0.08 0.03 0.01 0.01 0.00 0.00
0.00 0.00 0.00 0.00 0.00 0.00 0.01 0.01 0.02 0.04 0.06 0.04 0.04 0.08 0.06 0.02 0.01 0.00 0.01 0.01 0.01 0.00 0.00 0.00 0.02 0.05 0.09 0.10 0.09 0.09 0.07 0.06 0.07 0.11 0.12 0.10 0.07 0.06 0.06 0.06 0.06 0.06 0.08 0.07 0.04 0.01 0.01 0.00 0.00
0.00 0.00 0.00 0.00 0.00 0.00 0.01 0.02 0.02 0.02 0.03 0.04 0.05 0.08 0.08 0.03 0.02 0.01 0.01 0.01 0.00 0.00 0.00 0.00 0.00 0.02 0.04 0.04 0.02 0.02 0.03 0.02 0.02 0.04 0.05 0.05 0.08 0.12 0.12 0.07 0.06 0.09 0.10 0.07 0.02 0.01 0.00 0.00 0.00
0.00 0.00 0.00 0.00 0.00 0.00 0.01 0.02 0.03 0.02 0.02 0.03 0.07 0.08 0.08 0.03 0.02 0.02 0.01 0.01 0.01 0.00 0.00 0.00 0.00 0.00 0.03 0.03 0.02 0.02 0.02 0.03 0.03 0.05 0.03 0.05 0.16 0.24 0.19 0.15 0.11 0.10 0.07 0.03 0.01 0.01 0.00 0.00 0.00
0.00 0.00 0.00 0.00 0.00 0.00 0.00 0.01 0.02 0.02 0.02 0.02 0.07 0.16 0.12 0.04 0.03 0.04 0.03 0.03 0.02 0.01 0.00 0.01 0.01 0.02 0.12 0.13 0.03 0.04 0.03 0.04 0.03 0.05 0.05 0.11 0.18 0.15 0.14 0.16 0.11 0.07 0.04 0.03 0.03 0.02 0.01 0.01 0.01
0.00 0.00 0.00 0.00 0.00 0.00 0.00 0.00 0.01 0.01 0.01 0.02 0.06 0.15 0.20 0.09 0.05 0.07 0.07 0.06 0.03 0.01 0.00 0.01 0.01 0.03 0.08 0.11 0.03 0.03 0.02 0.03 0.04 0.05 0.05 0.12 0.17 0.17 0.19 0.28 0.20 0.14 0.11 0.08 0.05 0.04 0.04 0.03 0.02
0.00 0.00 0.00 0.00 0.00 0.00 0.00 0.00 0.00 0.00 0.01 0.02 0.04 0.09 0.17 0.10 0.06 0.10 0.14 0.11 0.05 0.02 0.01 0.00 0.00 0.02 0.02 0.01 0.02 0.02 0.01 0.01 0.02 0.04 0.06 0.10 0.14 0.17 0.22 0.28 0.32 0.20 0.18 0.15 0.12 0.10 0.09 0.07 0.03
0.00 0.00 0.00 0.00 0.00 0.00 0.00 0.00 0.00 0.00 0.01 0.01 0.03 0.07 0.12 0.10 0.11 0.15 0.20 0.13 0.06 0.03 0.02 0.01 0.00 0.00 0.01 0.01 0.01 0.01 0.01 0.02 0.02 0.05 0.06 0.06 0.12 0.26 0.33 0.30 0.26 0.16 0.13 0.16 0.22 0.22 0.13 0.08 0.06
0.00 0.00 0.00 0.00 0.00 0.00 0.00 0.00 0.00 0.00 0.00 0.01 0.03 0.05 0.09 0.13 0.13 0.17 0.24 0.13 0.08 0.04 0.02 0.02 0.01 0.01 0.00 0.00 0.01 0.02 0.04 0.05 0.05 0.07 0.08 0.08 0.11 0.20 0.25 0.28 0.24 0.18 0.13 0.12 0.13 0.17 0.19 0.15 0.13
0.00 0.00 0.00 0.00 0.00 0.00 0.00 0.00 0.00 0.00 0.00 0.00 0.01 0.04 0.05 0.11 0.15 0.15 0.17 0.14 0.10 0.06 0.03 0.03 0.02 0.01 0.01 0.01 0.03 0.06 0.08 0.08 0.08 0.10 0.13 0.15 0.16 0.20 0.23 0.25 0.24 0.22 0.20 0.20 0.20 0.19 0.22 0.25 0.20
0.00 0.00 0.00 0.00 0.00 0.00 0.00 0.00 0.00 0.00 0.00 0.00 0.00 0.01 0.03 0.07 0.12 0.14 0.21 0.24 0.16 0.09 0.06 0.05 0.03 0.02 0.02 0.04 0.06 0.09 0.12 0.14 0.16 0.19 0.22 0.27 0.29 0.31 0.32 0.33 0.33 0.32 0.34 0.33 0.30 0.30 0.29 0.28 0.25
0.00 0.00 0.00 0.00 0.00 0.00 0.00 0.00 0.00 0.00 0.00 0.00 0.00 0.01 0.03 0.05 0.10 0.15 0.18 0.26 0.27 0.16 0.10 0.07 0.04 0.05 0.06 0.08 0.10 0.12 0.17 0.23 0.29 0.35 0.44 0.54 0.57 0.54 0.51 0.52 0.50 0.49 0.44 0.40 0.37 0.33 0.30 0.25 0.21
0.00 0.00 0.00 0.00 0.00 0.00 0.00 0.00 0.00 0.00 0.00 0.00 0.00 0.01 0.04 0.08 0.13 0.19 0.20 0.25 0.30 0.20 0.12 0.09 0.08 0.11 0.16 0.22 0.22 0.29 0.46 0.59 0.72 0.88 1.03 1.05 0.98 0.89 0.82 0.73 0.67 0.60 0.49 0.41 0.35 0.30 0.26 0.22 0.16
0.00 0.00 0.00 0.00 0.00 0.00 0.00 0.00 0.00 0.00 0.00 0.00 0.00 0.00 0.02 0.07 0.16 0.27 0.29 0.31 0.31 0.22 0.17 0.18 0.19 0.29 0.42 0.61 0.78 0.98 1.20 1.28 1.41 1.51 1.54 1.45 1.33 1.23 1.14 1.06 0.94 0.76 0.61 0.50 0.40 0.32 0.26 0.21 0.16
0.00 0.00 0.00 0.00 0.00 0.00 0.00 0.00 0.00 0.00 0.00 0.00 0.00 0.00 0.01 0.05 0.12 0.19 0.21 0.27 0.28 0.28 0.29 0.29 0.41 0.69 0.98 1.16 1.31 1.59 1.84 1.87 1.91 1.91 1.82 1.67 1.55 1.43 1.31 1.23 1.10 0.93 0.76 0.63 0.49 0.38 0.29 0.21 0.13
0.00 0.00 0.00 0.00 0.00 0.00 0.00 0.00 0.00 0.00 0.00 0.00 0.00 0.00 0.00 0.02 0.05 0.08 0.13 0.20 0.25 0.35 0.41 0.48 0.73 1.21 1.54 1.67 1.93 2.21 2.40 2.52 2.52 2.31 2.01 1.71 1.48 1.30 1.13 1.01 0.88 0.77 0.63 0.49 0.35 0.25 0.18 0.11 0.06
0.00 0.00 0.00 0.00 0.00 0.00 0.00 0.00 0.00 0.00 0.00 0.00 0.00 0.00 0.01 0.01 0.03 0.04 0.09 0.19 0.26 0.40 0.53 0.68 0.97 1.34 1.69 2.05 2.42 2.55 2.63 2.62 2.43 2.07 1.66 1.39 1.20 1.03 0.89 0.75 0.60 0.46 0.33 0.23 0.17 0.13 0.10 0.08 0.05
0.00 0.00 0.00 0.00 0.00 0.00 0.00 0.00 0.00 0.00 0.00 0.00 0.01 0.01 0.01 0.02 0.03 0.06 0.14 0.24 0.37 0.51 0.62 0.76 0.96 1.23 1.60 1.92 2.13 2.10 2.12 2.01 1.75 1.52 1.37 1.18 0.95 0.74 0.55 0.39 0.27 0.18 0.13 0.10 0.08 0.07 0.05 0.03 0.02
0.00 0.00 0.00 0.00 0.00 0.00 0.00 0.00 0.00 0.01 0.01 0.01 0.01 0.02 0.02 0.03 0.05 0.10 0.20 0.28 0.43 0.51 0.61 0.77 0.94 1.14 1.34 1.54 1.73 1.76 1.67 1.52 1.32 1.14 0.94 0.73 0.55 0.39 0.24 0.15 0.10 0.07 0.05 0.04 0.03 0.03 0.02 0.01 0.01
0.00 0.00 0.00 0.00 0.00 0.00 0.00 0.00 0.02 0.02 0.02 0.02 0.02 0.03 0.04 0.06 0.10 0.18 0.25 0.34 0.47 0.57 0.65 0.79 0.93 1.08 1.14 1.16 1.19 1.15 1.07 0.97 0.84 0.66 0.48 0.36 0.25 0.17 0.11 0.07 0.05 0.03 0.02 0.02 0.02 0.01 0.01 0.01 0.01
0.00 0.00 0.00 0.00 0.00 0.00 0.00 0.05 0.06 0.04 0.04 0.03 0.03 0.04 0.07 0.12 0.17 0.22 0.30 0.39 0.50 0.59 0.68 0.77 0.84 0.90 0.90 0.85 0.78 0.69 0.64 0.56 0.47 0.37 0.27 0.19 0.11 0.06 0.04 0.02 0.01 0.01 0.01 0.01 0.01 0.01 0.01 0.01 0.01
0.00 0.00 0.00 0.00 0.00 0.00 0.01 0.06 0.09 0.08 0.08 0.07 0.07 0.09 0.13 0.18 0.22 0.27 0.32 0.38 0.41 0.40 0.46 0.49 0.52 0.56 0.56 0.53 0.50 0.46 0.39 0.30 0.22 0.16 0.11 0.07 0.04 0.02 0.02 0.01 0.01 0.01 0.01 0.01 0.01 0.01 0.01 0.01 0.01
0.00 0.00 0.00 0.00 0.00 0.00 0.01 0.08 0.14 0.20 0.20 0.15 0.13 0.14 0.17 0.21 0.24 0.27 0.30 0.32 0.34 0.35 0.39 0.41 0.41 0.42 0.38 0.34 0.29 0.22 0.16 0.12 0.09 0.07 0.05 0.04 0.03 0.02 0.01 0.01 0.00 0.00 0.00 0.00 0.00 0.01 0.01 0.01 0.01
0.00 0.00 0.00 0.00 0.00 0.00 0.02 0.15 0.23 0.33 0.37 0.28 0.21 0.21 0.24 0.25 0.27 0.26 0.25 0.23 0.23 0.23 0.23 0.25 0.25 0.23 0.21 0.17 0.12 0.10 0.09 0.07 0.05 0.04 0.02 0.01 0.01 0.00 0.00 0.00 0.00 0.00 0.00 0.00 0.00 0.01 0.01 0.02 0.02

GEFSSGP_prec_meanprecacc_048.txt.gz
Total_Precipitation_Accumulation
0.00 0.00 0.00 0.00 0.00 0.00 0.00 0.00 0.00 0.01 0.01 0.01 0.02 0.01 0.02 0.02 0.03 0.16 0.08 0.01 0.00 0.00 0.00 0.01 0.02 0.02 0.02 0.03 0.05 0.05 0.05 0.06 0.08 0.08 0.09 0.09 0.09 0.08 0.08 0.08 0.11 0.15 0.18 0.16 0.14 0.12 0.13 0.11 0.07
0.00 0.00 0.00 0.00 0.00 0.00 0.00 0.00 0.01 0.01 0.03 0.01 0.00 0.00 0.01 0.01 0.00 0.01 0.01 0.01 0.01 0.00 0.00 0.01 0.02 0.02 0.02 0.02 0.04 0.07 0.07 0.07 0.07 0.07 0.08 0.07 0.07 0.07 0.07 0.08 0.11 0.16 0.20 0.20 0.18 0.16 0.13 0.10 0.06
0.00 0.00 0.00 0.00 0.00 0.00 0.00 0.01 0.01 0.01 0.02 0.01 0.01 0.01 0.01 0.01 0.00 0.00 0.01 0.00 0.00 0.00 0.00 0.01 0.02 0.02 0.03 0.02 0.03 0.06 0.07 0.07 0.06 0.07 0.07 0.07 0.07 0.06 0.07 0.08 0.09 0.11 0.15 0.14 0.11 0.09 0.09 0.09 0.05
0.00 0.00 0.00 0.00 0.00 0.00 0.00 0.01 0.02 0.01 0.01 0.01 0.01 0.02 0.02 0.01 0.00 0.00 0.01 0.01 0.00 0.00 0.00 0.01 0.02 0.03 0.04 0.04 0.05 0.06 0.06 0.07 0.07 0.08 0.10 0.09 0.09 0.08 0.09 0.11 0.12 0.11 0.12 0.11 0.08 0.08 0.07 0.08 0.04
0.00 0.00 0.00 0.00 0.00 0.00 0.00 0.01 0.03 0.02 0.01 0.01 0.01 0.03 0.02 0.01 0.00 0.00 0.00 0.01 0.01 0.01 0.01 0.01 0.02 0.05 0.06 0.07 0.09 0.11 0.12 0.11 0.11 0.12 0.13 0.12 0.11 0.10 0.11 0.12 0.13 0.13 0.13 0.12 0.10 0.12 0.11 0.07 0.02
0.00 0.00 0.00 0.00 0.00 0.00 0.00 0.01 0.03 0.04 0.02 0.02 0.03 0.04 0.04 0.02 0.01 0.00 0.01 0.02 0.02 0.02 0.01 0.00 0.01 0.04 0.09 0.12 0.15 0.17 0.14 0.12 0.11 0.12 0.15 0.12 0.09 0.07 0.07 0.08 0.09 0.11 0.14 0.15 0.10 0.06 0.05 0.02 0.01
0.00 0.00 0.00 0.00 0.00 0.00 0.00 0.00 0.02 0.03 0.03 0.04 0.04 0.06 0.05 0.02 0.01 0.00 0.01 0.01 0.01 0.01 0.01 0.00 0.01 0.03 0.10 0.16 0.15 0.14 0.11 0.10 0.10 0.13 0.16 0.14 0.09 0.06 0.06 0.08 0.10 0.10 0.10 0.08 0.04 0.02 0.01 0.00 0.00
0.00 0.00 0.00 0.00 0.00 0.00 0.01 0.01 0.02 0.04 0.06 0.04 0.05 0.08 0.06 0.02 0.02 0.01 0.01 0.01 0.01 0.01 0.00 0.01 0.02 0.05 0.09 0.10 0.09 0.09 0.07 0.06 0.07 0.11 0.12 0.10 0.07 0.06 0.06 0.06 0.06 0.06 0.08 0.08 0.04 0.01 0.01 0.01 0.01
0.00 0.00 0.00 0.00 0.00 0.00 0.01 0.02 0.02 0.02 0.03 0.04 0.05 0.08 0.08 0.03 0.02 0.02 0.01 0.01 0.01 0.00 0.00 0.00 0.01 0.02 0.04 0.04 0.02 0.02 0.03 0.02 0.02 0.04 0.05 0.05 0.08 0.12 0.12 0.07 0.06 0.09 0.10 0.08 0.03 0.02 0.01 0.01 0.01
0.00 0.00 0.00 0.00 0.00 0.00 0.01 0.02 0.03 0.02 0.02 0.03 0.07 0.08 0.08 0.03 0.02 0.02 0.02 0.02 0.01 0.00 0.00 0.00 0.00 0.00 0.03 0.03 0.02 0.02 0.02 0.03 0.03 0.05 0.03 0.05 0.16 0.24 0.19 0.15 0.11 0.10 0.07 0.04 0.03 0.02 0.02 0.01 0.00
0.00 0.00 0.00 0.00 0.00 0.00 0.00 0.01 0.02 0.02 0.02 0.02 0.07 0.16 0.12 0.05 0.04 0.04 0.03 0.03 0.02 0.01 0.00 0.01 0.01 0.02 0.12 0.13 0.03 0.04 0.03 0.04 0.03 0.05 0.05 0.11 0.18 0.15 0.14 0.16 0.11 0.07 0.04 0.03 0.03 0.03 0.02 0.01 0.01
0.00 0.00 0.00 0.00 0.00 0.00 0.00 0.00 0.01 0.01 0.01 0.02 0.06 0.16 0.20 0.09 0.06 0.07 0.08 0.07 0.04 0.02 0.00 0.01 0.01 0.03 0.08 0.11 0.03 0.03 0.02 0.03 0.04 0.05 0.05 0.12 0.17 0.17 0.19 0.28 0.20 0.14 0.11 0.08 0.05 0.05 0.04 0.03 0.03
0.00 0.00 0.00 0.00 0.00 0.00 0.00 0.00 0.00 0.00 0.01 0.02 0.04 0.09 0.17 0.10 0.07 0.10 0.14 0.12 0.05 0.03 0.01 0.00 0.00 0.02 0.02 0.01 0.02 0.02 0.01 0.01 0.02 0.04 0.06 0.10 0.14 0.17 0.22 0.28 0.33 0.21 0.19 0.15 0.13 0.11 0.11 0.08 0.04
0.00 0.00 0.00 0.00 0.00 0.00 0.00 0.00 0.00 0.00 0.01 0.01 0.03 0.08 0.13 0.11 0.11 0.15 0.20 0.13 0.06 0.03 0.02 0.01 0.00 0.00 0.01 0.01 0.01 0.01 0.01 0.02 0.02 0.05 0.06 0.06 0.12 0.26 0.34 0.31 0.28 0.19 0.16 0.18 0.24 0.24 0.16 0.11 0.09
0.00 0.00 0.00 0.00 0.00 0.00 0.00 0.00 0.00 0.00 0.00 0.01 0.03 0.05 0.09 0.13 0.13 0.17 0.24 0.13 0.08 0.05 0.03 0.03 0.01 0.01 0.01 0.00 0.01 0.02 0.04 0.05 0.05 0.07 0.08 0.08 0.11 0.20 0.26 0.30 0.28 0.22 0.18 0.17 0.18 0.22 0.24 0.20 0.17
0.00 0.00 0.00 0.00 0.00 0.00 0.00 0.00 0.00 0.00 0.00 0.00 0.01 0.04 0.05 0.11 0.15 0.16 0.18 0.14 0.11 0.07 0.05 0.04 0.03 0.02 0.01 0.01 0.03 0.06 0.09 0.08 0.08 0.11 0.14 0.15 0.17 0.22 0.26 0.32 0.32 0.30 0.28 0.28 0.28 0.27 0.28 0.29 0.24
0.00 0.00 0.00 0.00 0.00 0.00 0.00 0.00 0.00 0.00 0.00 0.00 0.00 0.01 0.03 0.07 0.12 0.15 0.21 0.25 0.18 0.10 0.08 0.07 0.05 0.04 0.04 0.05 0.07 0.11 0.13 0.15 0.17 0.21 0.25 0.30 0.36 0.38 0.41 0.45 0.48 0.46 0.46 0.43 0.39 0.37 0.33 0.32 0.29
0.00 0.00 0.00 0.00 0.00 0.00 0.00 0.00 0.00 0.00 0.00 0.00 0.00 0.01 0.03 0.05 0.10 0.16 0.19 0.27 0.28 0.18 0.12 0.09 0.07 0.10 0.11 0.12 0.15 0.18 0.23 0.29 0.36 0.42 0.53 0.67 0.74 0.72 0.70 0.70 0.68 0.67 0.59 0.51 0.45 0.39 0.34 0.29 0.25
0.00 0.00 0.00 0.00 0.00 0.00 0.00 0.00 0.00 0.00 0.00 0.00 0.00 0.01 0.04 0.08 0.13 0.20 0.21 0.26 0.32 0.22 0.15 0.13 0.16 0.22 0.27 0.32 0.35 0.43 0.61 0.74 0.89 1.06 1.23 1.30 1.21 1.12 1.02 0.91 0.85 0.78 0.65 0.53 0.43 0.35 0.30 0.25 0.19
0.00 0.00 0.00 0.00 0.00 0.00 0.00 0.00 0.00 0.00 0.00 0.00 0.00 0.00 0.03 0.07 0.16 0.28 0.29 0.32 0.33 0.25 0.22 0.23 0.29 0.45 0.63 0.87 1.08 1.31 1.52 1.60 1.75 1.86 1.87 1.79 1.61 1.45 1.35 1.27 1.15 0.95 0.76 0.61 0.47 0.37 0.30 0.24 0.18
0.00 0.00 0.00 0.00 0.00 0.00 0.00 0.00 0.00 0.00 0.00 0.00 0.00 0.00 0.01 0.06 0.12 0.20 0.22 0.28 0.30 0.33 0.34 0.36 0.52 0.85 1.22 1.46 1.70 2.09 2.38 2.41 2.39 2.29 2.16 1.99 1.84 1.69 1.55 1.45 1.29 1.09 0.88 0.73 0.57 0.42 0.32 0.23 0.15
0.00 0.00 0.00 0.00 0.00 0.00 0.00 0.00 0.01 0.01 0.01 0.01 0.01 0.01 0.01 0.02 0.05 0.09 0.14 0.21 0.26 0.38 0.45 0.53 0.81 1.35 1.76 1.99 2.37 2.73 2.94 3.05 3.02 2.70 2.33 2.00 1.76 1.55 1.36 1.21 1.04 0.89 0.72 0.55 0.40 0.28 0.20 0.12 0.07
0.00 0.00 0.00 0.00 0.00 0.00 0.00 0.00 0.01 0.02 0.01 0.02 0.02 0.02 0.02 0.03 0.04 0.05 0.11 0.21 0.29 0.43 0.57 0.72 1.04 1.46 1.91 2.40 2.88 3.09 3.17 3.11 2.83 2.38 1.94 1.65 1.46 1.27 1.09 0.92 0.73 0.54 0.39 0.27 0.19 0.14 0.11 0.09 0.06
0.00 0.00 0.00 0.00 0.00 0.00 0.00 0.00 0.01 0.02 0.02 0.03 0.03 0.04 0.05 0.05 0.06 0.09 0.17 0.27 0.41 0.55 0.67 0.83 1.06 1.40 1.86 2.29 2.60 2.60 2.60 2.44 2.08 1.79 1.61 1.44 1.21 0.96 0.73 0.54 0.36 0.24 0.17 0.13 0.10 0.08 0.06 0.04 0.03
0.00 0.00 0.00 0.00 0.00 0.00 0.00 0.00 0.02 0.03 0.03 0.03 0.04 0.05 0.07 0.07 0.10 0.16 0.25 0.33 0.50 0.60 0.73 0.92 1.13 1.42 1.69 1.99 2.24 2.25 2.14 1.94 1.69 1.43 1.18 0.95 0.75 0.56 0.39 0.27 0.20 0.14 0.10 0.06 0.04 0.03 0.02 0.01 0.01
0.00 0.00 0.00 0.00 0.00 0.00 0.00 0.02 0.06 0.05 0.05 0.04 0.05 0.06 0.07 0.10 0.16 0.26 0.33 0.43 0.59 0.70 0.83 1.02 1.25 1.47 1.53 1.53 1.59 1.56 1.46 1.34 1.17 0.90 0.69 0.55 0.42 0.32 0.26 0.21 0.14 0.08 0.04 0.03 0.02 0.01 0.01 0.01 0.01
0.00 0.00 0.00 0.00 0.00 0.00 0.01 0.07 0.11 0.08 0.07 0.05 0.06 0.07 0.11 0.16 0.22 0.30 0.38 0.49 0.62 0.76 0.88 1.01 1.12 1.21 1.22 1.15 1.08 1.00 0.94 0.84 0.72 0.58 0.46 0.35 0.24 0.17 0.12 0.09 0.05 0.03 0.01 0.01 0.01 0.01 0.01 0.01 0.01
0.00 0.00 0.00 0.00 0.00 0.00 0.01 0.08 0.13 0.12 0.11 0.09 0.09 0.11 0.16 0.22 0.26 0.32 0.40 0.46 0.50 0.53 0.61 0.65 0.70 0.77 0.77 0.73 0.69 0.67 0.60 0.50 0.41 0.32 0.24 0.17 0.11 0.07 0.04 0.02 0.02 0.01 0.01 0.01 0.01 0.01 0.01 0.01 0.01
0.00 0.00 0.00 0.00 0.00 0.00 0.01 0.10 0.20 0.27 0.26 0.19 0.17 0.17 0.20 0.24 0.28 0.31 0.36 0.37 0.39 0.40 0.45 0.49 0.51 0.52 0.50 0.46 0.42 0.34 0.28 0.22 0.19 0.16 0.12 0.08 0.06 0.04 0.02 0.02 0.01 0.01 0.01 0.01 0.01 0.01 0.01 0.01 0.01
0.00 0.00 0.00 0.00 0.00 0.00 0.02 0.18 0.29 0.40 0.44 0.33 0.26 0.25 0.29 0.31 0.33 0.33 0.31 0.29 0.29 0.28 0.29 0.30 0.31 0.29 0.29 0.25 0.20 0.18 0.16 0.14 0.10 0.08 0.06 0.03 0.02 0.02 0.01 0.01 0.02 0.02 0.01 0.01 0.01 0.01 0.02 0.02 0.02

GEFSSGP_prec_meanprecacc_054.txt.gz
Total_Precipitation_Accumulation
0.00 0.00 0.00 0.00 0.00 0.00 0.00 0.00 0.00 0.01 0.01 0.01 0.02 0.01 0.02 0.02 0.03 0.16 0.08 0.01 0.00 0.00 0.00 0.01 0.02 0.03 0.04 0.05 0.05 0.06 0.05 0.06 0.08 0.08 0.09 0.09 0.09 0.08 0.08 0.08 0.11 0.16 0.18 0.17 0.14 0.12 0.13 0.11 0.07
0.00 0.00 0.00 0.00 0.00 0.00 0.00 0.00 0.01 0.02 0.03 0.02 0.01 0.00 0.01 0.01 0.00 0.01 0.01 0.01 0.01 0.00 0.00 0.01 0.02 0.03 0.04 0.03 0.05 0.07 0.07 0.07 0.07 0.07 0.08 0.08 0.07 0.07 0.07 0.08 0.11 0.16 0.21 0.21 0.18 0.16 0.14 0.10 0.06
0.00 0.00 0.00 0.00 0.00 0.00 0.00 0.01 0.01 0.01 0.03 0.01 0.01 0.01 0.01 0.01 0.00 0.00 0.01 0.00 0.00 0.00 0.00 0.01 0.02 0.02 0.03 0.03 0.03 0.06 0.07 0.07 0.06 0.07 0.07 0.07 0.07 0.07 0.08 0.09 0.10 0.12 0.15 0.15 0.11 0.09 0.09 0.09 0.05
0.00 0.00 0.00 0.00 0.00 0.00 0.00 0.02 0.02 0.01 0.02 0.01 0.02 0.02 0.02 0.01 0.00 0.00 0.01 0.01 0.00 0.00 0.00 0.01 0.02 0.03 0.04 0.05 0.05 0.07 0.06 0.07 0.07 0.08 0.10 0.10 0.09 0.08 0.10 0.13 0.13 0.12 0.13 0.11 0.09 0.08 0.07 0.08 0.04
0.00 0.00 0.00 0.00 0.00 0.00 0.00 0.01 0.03 0.02 0.01 0.01 0.02 0.03 0.02 0.01 0.00 0.00 0.00 0.01 0.01 0.01 0.01 0.01 0.02 0.05 0.07 0.08 0.09 0.11 0.12 0.11 0.11 0.12 0.13 0.13 0.12 0.12 0.13 0.14 0.15 0.14 0.14 0.12 0.10 0.12 0.11 0.07 0.03
0.00 0.00 0.00 0.00 0.00 0.00 0.00 0.01 0.03 0.04 0.02 0.02 0.03 0.04 0.04 0.02 0.01 0.00 0.01 0.02 0.02 0.02 0.01 0.00 0.01 0.04 0.09 0.12 0.16 0.17 0.14 0.12 0.11 0.12 0.15 0.13 0.10 0.09 0.09 0.10 0.11 0.13 0.15 0.15 0.10 0.06 0.05 0.02 0.01
0.00 0.00 0.00 0.00 0.01 0.01 0.00 0.00 0.02 0.03 0.03 0.04 0.04 0.06 0.05 0.02 0.01 0.00 0.01 0.01 0.01 0.01 0.01 0.00 0.01 0.03 0.10 0.17 0.16 0.14 0.12 0.10 0.10 0.13 0.17 0.15 0.10 0.07 0.07 0.09 0.11 0.11 0.11 0.08 0.04 0.02 0.01 0.00 0.01
0.00 0.00 0.00 0.00 0.01 0.01 0.02 0.02 0.02 0.04 0.06 0.04 0.05 0.08 0.06 0.02 0.02 0.01 0.01 0.01 0.01 0.01 0.01 0.01 0.02 0.05 0.09 0.11 0.11 0.09 0.07 0.06 0.07 0.11 0.13 0.10 0.07 0.06 0.07 0.07 0.06 0.06 0.08 0.08 0.04 0.02 0.01 0.01 0.01
0.00 0.00 0.00 0.00 0.01 0.01 0.02 0.03 0.02 0.02 0.03 0.04 0.05 0.08 0.08 0.03 0.02 0.02 0.01 0.01 0.01 0.01 0.01 0.01 0.01 0.03 0.05 0.05 0.02 0.03 0.03 0.03 0.03 0.04 0.05 0.05 0.08 0.12 0.12 0.07 0.06 0.09 0.10 0.08 0.04 0.02 0.02 0.01 0.01
0.00 0.00 0.00 0.00 0.01 0.01 0.02 0.03 0.03 0.02 0.02 0.03 0.07 0.08 0.08 0.03 0.02 0.02 0.02 0.02 0.01 0.00 0.00 0.00 0.01 0.01 0.04 0.04 0.02 0.03 0.03 0.03 0.03 0.05 0.03 0.05 0.17 0.24 0.19 0.15 0.11 0.10 0.08 0.04 0.03 0.03 0.02 0.01 0.01
0.00 0.00 0.00 0.00 0.00 0.01 0.01 0.01 0.02 0.02 0.02 0.02 0.07 0.16 0.12 0.05 0.04 0.04 0.03 0.03 0.02 0.01 0.00 0.01 0.01 0.03 0.13 0.14 0.05 0.05 0.05 0.04 0.03 0.05 0.05 0.12 0.18 0.16 0.14 0.16 0.11 0.07 0.05 0.04 0.04 0.03 0.02 0.01 0.01
0.00 0.00 0.00 0.00 0.00 0.00 0.00 0.01 0.01 0.01 0.01 0.02 0.06 0.16 0.20 0.09 0.06 0.07 0.08 0.07 0.04 0.02 0.00 0.01 0.01 0.03 0.09 0.12 0.05 0.04 0.04 0.04 0.04 0.06 0.05 0.13 0.17 0.17 0.19 0.28 0.20 0.15 0.13 0.11 0.07 0.06 0.05 0.03 0.03
0.00 0.00 0.00 0.00 0.00 0.00 0.00 0.00 0.00 0.00 0.01 0.02 0.04 0.09 0.17 0.10 0.07 0.10 0.14 0.12 0.05 0.03 0.01 0.00 0.00 0.02 0.02 0.02 0.03 0.03 0.03 0.02 0.03 0.04 0.06 0.10 0.15 0.18 0.23 0.29 0.35 0.23 0.21 0.18 0.15 0.12 0.11 0.09 0.04
0.00 0.00 0.00 0.00 0.00 0.00 0.00 0.00 0.00 0.00 0.01 0.01 0.03 0.08 0.13 0.11 0.11 0.15 0.20 0.13 0.06 0.03 0.02 0.01 0.00 0.01 0.01 0.01 0.01 0.02 0.02 0.03 0.03 0.05 0.07 0.06 0.13 0.27 0.34 0.32 0.31 0.22 0.19 0.22 0.27 0.26 0.17 0.12 0.09
0.00 0.00 0.00 0.00 0.00 0.00 0.00 0.00 0.00 0.00 0.00 0.01 0.03 0.05 0.09 0.13 0.13 0.17 0.24 0.13 0.08 0.05 0.03 0.03 0.01 0.01 0.01 0.01 0.01 0.03 0.05 0.05 0.05 0.08 0.08 0.09 0.11 0.21 0.27 0.32 0.32 0.27 0.24 0.22 0.21 0.25 0.26 0.21 0.18
0.00 0.00 0.00 0.00 0.00 0.00 0.00 0.00 0.00 0.00 0.00 0.00 0.01 0.04 0.05 0.11 0.15 0.16 0.18 0.14 0.11 0.07 0.05 0.04 0.03 0.02 0.01 0.02 0.03 0.06 0.09 0.09 0.09 0.11 0.14 0.16 0.18 0.23 0.29 0.35 0.38 0.37 0.36 0.37 0.35 0.32 0.32 0.32 0.27
0.00 0.00 0.00 0.00 0.00 0.00 0.00 0.00 0.00 0.00 0.00 0.00 0.00 0.01 0.03 0.07 0.12 0.15 0.21 0.25 0.18 0.10 0.08 0.07 0.05 0.04 0.04 0.05 0.07 0.11 0.13 0.16 0.18 0.21 0.26 0.32 0.38 0.42 0.46 0.51 0.55 0.55 0.57 0.54 0.49 0.44 0.39 0.39 0.34
0.00 0.00 0.00 0.00 0.00 0.00 0.00 0.00 0.00 0.00 0.00 0.00 0.00 0.01 0.03 0.06 0.10 0.16 0.19 0.27 0.28 0.18 0.12 0.10 0.07 0.10 0.11 0.13 0.16 0.18 0.23 0.30 0.37 0.44 0.56 0.72 0.82 0.81 0.79 0.79 0.79 0.80 0.74 0.66 0.56 0.48 0.42 0.36 0.31
0.00 0.00 0.00 0.00 0.00 0.00 0.00 0.00 0.00 0.00 0.00 0.00 0.00 0.01 0.04 0.08 0.13 0.20 0.21 0.26 0.32 0.22 0.16 0.14 0.17 0.23 0.28 0.35 0.37 0.45 0.63 0.78 0.94 1.13 1.34 1.45 1.36 1.28 1.18 1.10 1.06 0.98 0.86 0.72 0.58 0.48 0.40 0.33 0.26
0.00 0.00 0.00 0.00 0.00 0.00 0.00 0.00 0.00 0.00 0.00 0.00 0.00 0.00 0.03 0.07 0.16 0.28 0.30 0.33 0.34 0.26 0.23 0.25 0.31 0.47 0.66 0.91 1.14 1.36 1.58 1.68 1.85 2.03 2.09 2.02 1.86 1.72 1.60 1.51 1.39 1.19 1.00 0.82 0.65 0.51 0.41 0.33 0.26
0.00 0.00 0.00 0.00 0.00 0.00 0.00 0.00 0.00 0.01 0.01 0.00 0.00 0.00 0.01 0.06 0.12 0.20 0.22 0.29 0.32 0.35 0.37 0.41 0.57 0.91 1.30 1.57 1.83 2.22 2.51 2.55 2.56 2.50 2.41 2.32 2.19 2.04 1.86 1.74 1.58 1.37 1.14 0.95 0.75 0.56 0.43 0.33 0.24
0.00 0.00 0.00 0.00 0.00 0.00 0.00 0.00 0.01 0.01 0.01 0.01 0.01 0.01 0.01 0.03 0.05 0.09 0.14 0.23 0.28 0.40 0.48 0.57 0.87 1.42 1.85 2.12 2.51 2.93 3.16 3.29 3.29 3.01 2.66 2.32 2.05 1.82 1.63 1.46 1.28 1.11 0.93 0.77 0.59 0.43 0.30 0.21 0.15
0.00 0.00 0.00 0.00 0.00 0.00 0.00 0.00 0.02 0.03 0.02 0.03 0.04 0.03 0.03 0.04 0.05 0.06 0.12 0.23 0.31 0.45 0.61 0.78 1.11 1.55 2.02 2.56 3.08 3.37 3.51 3.51 3.26 2.77 2.27 1.95 1.75 1.54 1.33 1.14 0.94 0.74 0.58 0.46 0.36 0.26 0.21 0.17 0.13
0.00 0.00 0.00 0.00 0.00 0.00 0.00 0.01 0.03 0.04 0.04 0.05 0.06 0.07 0.08 0.07 0.08 0.11 0.19 0.31 0.44 0.59 0.72 0.90 1.14 1.51 2.00 2.48 2.86 2.88 2.95 2.87 2.53 2.18 1.96 1.78 1.51 1.22 0.95 0.72 0.53 0.39 0.31 0.26 0.23 0.18 0.14 0.10 0.07
0.00 0.00 0.00 0.00 0.00 0.00 0.00 0.02 0.05 0.07 0.05 0.05 0.07 0.08 0.11 0.11 0.13 0.19 0.29 0.38 0.56 0.67 0.80 1.00 1.24 1.59 1.89 2.21 2.46 2.50 2.46 2.32 2.05 1.78 1.51 1.26 1.02 0.77 0.56 0.42 0.34 0.27 0.21 0.16 0.12 0.09 0.06 0.04 0.03
0.00 0.00 0.00 0.00 0.00 0.00 0.02 0.05 0.10 0.08 0.07 0.06 0.06 0.08 0.10 0.13 0.19 0.30 0.38 0.49 0.65 0.77 0.91 1.13 1.37 1.62 1.71 1.75 1.86 1.86 1.79 1.68 1.52 1.23 0.99 0.83 0.67 0.51 0.40 0.34 0.28 0.20 0.12 0.07 0.05 0.04 0.03 0.02 0.01
0.00 0.00 0.00 0.00 0.00 0.01 0.03 0.10 0.16 0.12 0.08 0.07 0.07 0.09 0.13 0.19 0.26 0.34 0.43 0.54 0.67 0.82 0.96 1.12 1.24 1.36 1.42 1.41 1.36 1.30 1.24 1.13 1.02 0.85 0.69 0.54 0.40 0.30 0.22 0.18 0.14 0.08 0.04 0.03 0.02 0.02 0.01 0.01 0.01
0.00 0.00 0.00 0.00 0.00 0.01 0.03 0.11 0.17 0.16 0.13 0.11 0.11 0.13 0.18 0.24 0.29 0.35 0.43 0.49 0.53 0.57 0.67 0.74 0.81 0.88 0.92 0.91 0.90 0.86 0.79 0.68 0.59 0.50 0.41 0.32 0.24 0.18 0.12 0.08 0.05 0.03 0.02 0.02 0.01 0.01 0.01 0.01 0.01
0.00 0.00 0.00 0.00 0.00 0.00 0.03 0.13 0.24 0.32 0.29 0.21 0.18 0.19 0.22 0.26 0.30 0.33 0.37 0.39 0.42 0.43 0.48 0.53 0.58 0.61 0.60 0.57 0.53 0.45 0.40 0.33 0.29 0.26 0.22 0.18 0.16 0.13 0.10 0.08 0.06 0.04 0.03 0.02 0.02 0.02 0.02 0.02 0.02
0.00 0.00 0.00 0.00 0.00 0.00 0.03 0.22 0.32 0.45 0.47 0.35 0.27 0.27 0.30 0.32 0.35 0.34 0.32 0.30 0.30 0.30 0.31 0.33 0.34 0.34 0.36 0.32 0.26 0.25 0.24 0.22 0.19 0.18 0.17 0.15 0.14 0.13 0.11 0.08 0.06 0.05 0.04 0.03 0.03 0.03 0.03 0.03 0.03